Theta_e
336 333 332 331 328 329 328 327 327 325 325 324 323 322 316 312 308 305 306 307 306 309 310 307 309 311 311 312 309 306 304 308 309 307 306 304 304 307 310 311 311 310 311 312 313 314 313 312 312 311 310 309 309 308 307 307 305 304 305 305 306 306 306 308 307 307 307 306 306 306 307 307 306 306
332 330 329 330 327 329 327 326 326 325 324 323 324 321 319 317 310 309 306 307 309 308 310 309 308 309 310 311 309 308 304 310 308 306 308 303 305 307 308 308 308 308 309 309 310 311 312 313 312 311 310 309 307 307 305 305 304 304 304 304 304 304 304 307 307 306 306 305 304 305 306 307 306 306
331 329 329 329 328 328 327 326 325 325 325 325 327 320 319 319 316 312 311 308 309 313 307 308 310 309 309 310 309 308 304 308 308 307 308 304 308 307 306 307 306 306 307 308 309 310 310 311 311 311 309 308 306 305 304 305 304 302 302 302 302 302 303 305 306 306 306 305 304 304 306 307 305 305
331 330 328 328 328 328 327 326 325 324 325 326 326 322 319 320 320 320 316 313 308 313 309 310 309 310 309 310 307 305 303 306 309 306 310 307 308 303 303 306 306 306 305 308 309 310 310 310 311 309 308 307 305 304 303 303 303 301 300 300 300 300 301 303 304 305 305 304 303 304 305 305 304 303
331 330 327 326 327 328 327 326 324 325 325 326 325 324 320 321 321 320 318 315 312 312 312 312 309 309 310 308 306 304 302 302 305 309 307 304 302 303 302 301 304 304 304 304 303 304 306 309 309 309 307 305 304 303 301 300 300 301 300 299 299 299 300 301 302 303 303 303 302 303 304 304 303 302
329 330 327 326 326 327 326 326 325 325 324 325 324 323 320 319 320 322 319 317 310 309 311 312 310 309 310 307 306 304 301 301 303 304 304 304 301 303 303 300 301 304 303 303 303 304 305 305 305 304 303 301 301 300 299 298 298 299 299 297 297 298 298 299 300 301 302 302 301 301 302 302 301 301
327 328 327 326 326 326 325 325 324 325 324 324 323 322 321 320 320 322 322 319 310 309 309 310 306 307 308 307 305 306 303 303 304 304 303 303 303 304 303 301 301 302 302 302 302 303 303 303 302 302 301 301 300 300 299 298 298 297 297 297 297 297 297 297 298 300 301 301 301 300 300 301 300 300
326 325 326 326 325 325 324 323 324 324 324 323 322 322 322 322 322 323 323 321 312 310 309 307 306 308 307 307 307 309 306 303 303 302 306 304 302 302 306 304 301 302 303 302 302 303 302 302 302 301 301 300 300 299 299 298 298 297 297 297 296 296 296 296 296 297 298 298 299 299 298 299 299 298
325 325 325 325 325 325 323 323 323 323 323 324 323 322 323 322 323 324 323 316 315 311 309 309 309 308 308 308 307 309 306 303 304 303 305 305 302 303 306 305 302 302 303 303 302 302 302 302 302 301 301 301 300 299 299 298 298 297 297 297 296 296 296 296 296 296 296 296 296 297 297 297 298 298
325 324 324 324 324 323 323 323 324 324 324 324 324 323 323 323 323 322 320 317 315 313 311 309 309 308 307 305 306 307 308 305 303 303 304 305 305 304 304 302 304 302 303 302 302 302 301 302 302 301 301 300 299 299 299 298 297 297 297 296 296 296 296 296 296 295 295 295 295 295 295 295 297 297
327 326 325 324 324 324 323 324 324 323 324 325 323 323 324 323 321 320 318 316 315 313 311 310 309 307 308 305 302 306 309 307 305 302 302 304 305 306 303 300 302 302 302 303 303 302 301 302 301 301 301 300 300 300 299 299 298 297 296 296 296 296 295 295 295 295 295 295 295 295 295 294 294 296
324 324 324 323 323 323 322 323 324 324 324 324 322 323 324 322 319 318 318 316 314 313 312 309 307 306 305 305 306 309 307 305 304 305 304 303 302 304 305 302 300 302 302 301 302 304 303 302 302 301 301 301 300 300 299 299 298 297 296 296 296 295 295 295 295 295 295 294 294 294 295 295 294 293
322 322 321 321 320 319 316 311 311 312 318 325 321 323 323 320 319 317 316 316 313 312 312 310 310 307 305 303 304 304 303 303 302 304 305 304 304 305 305 305 305 303 302 303 302 301 302 300 300 298 299 299 301 300 300 299 299 297 296 296 296 295 295 295 295 294 295 294 294 294 294 294 294 294
319 319 319 318 321 318 314 308 303 302 304 307 313 320 321 321 319 317 315 314 313 312 310 309 307 306 304 302 304 304 305 306 306 304 306 305 305 304 304 304 306 308 305 304 301 302 303 301 299 298 299 300 302 300 300 298 296 297 296 296 296 295 295 294 294 294 294 294 294 294 293 293 293 293
317 318 319 316 317 318 315 306 300 299 299 299 299 300 303 309 319 317 315 314 313 311 312 311 309 306 304 305 306 305 306 306 306 305 306 305 306 301 300 299 307 310 307 306 303 302 303 302 300 298 300 303 301 302 300 300 298 297 297 296 296 296 295 294 294 294 294 294 294 294 294 293 293 293
317 319 319 317 317 315 315 311 308 304 299 297 297 297 297 296 296 300 311 315 313 312 311 309 309 307 306 306 306 305 306 305 306 308 307 303 303 303 300 301 301 306 308 304 303 304 303 304 302 300 302 304 302 302 297 297 297 297 297 297 296 295 295 294 294 294 294 294 294 294 294 293 292 292
318 319 316 314 315 314 320 316 313 309 305 301 300 301 302 301 299 295 295 299 310 314 313 310 309 307 307 307 306 307 307 306 304 305 306 303 302 305 302 304 304 305 308 304 302 301 304 303 303 302 303 304 303 301 297 297 297 297 296 296 295 295 295 295 294 294 294 294 293 293 293 292 292 292
319 320 316 313 315 314 314 313 314 312 310 309 309 312 312 308 307 302 302 302 303 308 311 309 310 311 312 309 308 309 308 305 304 306 304 304 302 304 304 307 303 305 309 303 302 301 304 304 304 303 304 304 299 295 296 297 296 296 296 295 295 295 295 295 294 294 294 293 293 293 292 292 291 291
320 320 319 317 315 313 313 315 313 312 311 311 313 312 313 311 308 305 307 310 310 310 311 309 311 312 311 308 308 311 312 311 308 306 305 307 305 308 308 304 306 304 305 308 302 299 302 305 301 303 302 301 297 294 295 296 296 296 295 295 295 294 295 295 294 294 294 294 293 293 292 291 291 291
320 320 320 318 315 312 314 311 304 308 312 311 310 310 309 304 301 299 298 297 301 306 306 306 307 307 308 304 309 309 308 310 308 308 310 310 308 305 303 301 303 302 303 305 301 300 299 304 302 300 303 301 297 295 293 295 296 296 295 295 295 295 295 294 295 294 293 294 293 293 292 291 291 291
320 321 320 319 315 313 311 301 298 301 308 310 309 309 307 305 302 301 300 295 294 294 294 294 295 294 295 295 296 296 298 305 307 304 304 303 303 301 300 301 300 300 300 302 301 300 297 303 301 302 302 300 297 294 292 293 296 296 295 295 294 294 294 294 294 294 294 293 293 293 292 292 291 292
319 317 318 322 318 313 308 297 297 297 307 310 308 308 307 304 301 301 302 301 298 294 294 294 294 294 294 295 295 295 296 298 305 304 302 303 302 300 300 298 298 299 299 300 302 299 297 302 304 299 299 299 300 297 295 293 295 295 295 295 295 294 294 294 293 294 294 293 293 293 293 292 293 290
317 315 313 311 314 312 305 296 297 297 307 311 310 309 307 305 303 302 302 300 300 301 301 302 302 301 303 304 303 301 296 298 306 309 308 308 304 300 300 300 300 297 298 301 303 297 299 300 302 299 297 296 299 301 298 295 293 292 292 292 293 294 294 294 293 294 293 293 293 293 292 292 291 289
316 314 310 304 298 298 295 295 295 296 299 311 313 311 308 306 304 304 303 302 302 302 302 302 303 303 305 305 304 303 303 305 308 307 306 305 303 303 299 301 300 298 296 300 303 298 299 300 298 299 297 293 292 297 299 296 296 293 292 293 291 293 294 294 293 293 293 293 293 293 292 292 291 289
315 313 310 307 296 294 294 295 295 296 295 297 308 310 310 309 307 303 303 303 305 302 302 302 302 302 302 302 302 303 303 302 304 304 302 303 304 305 302 300 300 297 299 301 301 301 298 299 297 299 299 296 296 295 297 297 297 296 295 294 293 294 291 290 291 291 293 293 292 292 292 292 293 290
314 313 311 307 298 294 294 293 294 295 293 291 307 303 297 297 297 305 304 302 302 302 301 300 299 300 299 299 301 301 300 301 301 302 302 301 302 304 305 303 299 299 299 304 298 304 298 297 298 297 297 294 296 295 293 294 297 298 297 297 297 296 294 292 291 291 292 291 291 291 290 292 292 293
314 315 312 308 298 294 293 293 293 294 292 298 302 292 293 295 296 299 301 300 301 300 299 299 299 298 299 299 299 300 300 300 300 300 301 301 301 302 303 307 305 302 301 302 305 306 300 299 300 295 295 295 294 294 293 292 293 296 297 298 298 296 295 295 294 293 292 292 293 294 293 292 292 292
318 314 310 303 293 293 292 292 292 292 294 300 292 293 294 294 297 303 300 299 301 299 299 299 299 299 300 300 299 300 302 302 302 302 301 301 302 302 304 304 303 304 303 303 303 305 302 299 298 298 297 295 294 292 291 294 295 295 294 296 296 297 297 294 293 293 293 293 293 292 290 289 290 290
306 298 294 292 292 291 291 290 290 291 292 290 292 293 292 300 303 304 300 299 300 298 297 298 300 300 301 302 302 303 303 304 304 302 305 304 303 303 304 305 304 304 307 307 303 302 302 300 298 298 297 297 295 295 294 292 294 293 294 293 293 295 295 296 294 292 292 291 290 291 289 289 288 290
292 292 292 291 291 291 292 297 300 300 298 292 292 291 294 302 303 303 302 300 299 298 298 298 299 301 302 302 303 306 304 303 302 302 302 302 301 304 303 302 303 304 305 305 304 301 301 300 300 299 298 297 296 295 294 293 293 294 294 293 294 295 294 295 293 292 292 291 291 291 291 290 290 291
296 294 297 296 295 295 295 297 298 299 294 295 296 298 300 301 303 304 303 302 301 299 298 298 300 302 303 304 303 303 302 301 302 302 301 302 301 302 302 301 301 302 304 304 303 301 299 300 301 300 297 297 297 295 296 296 293 293 293 294 294 292 293 293 293 293 292 292 293 292 292 291 290 292
302 300 296 296 300 300 300 302 302 299 299 299 297 299 300 301 302 304 306 304 303 302 301 299 300 300 303 303 302 301 301 301 301 301 301 301 300 300 300 299 298 299 300 302 303 302 299 299 300 301 300 298 296 296 297 296 294 293 293 294 294 293 295 293 294 293 292 291 290 290 289 290 289 290
302 301 302 302 301 299 298 298 301 301 300 299 299 301 301 301 302 302 301 300 301 302 301 300 300 300 303 301 301 300 298 300 301 301 301 301 300 299 299 298 297 296 295 298 301 301 300 299 300 301 300 300 299 298 296 295 294 294 293 292 293 292 292 292 293 293 293 290 290 289 288 290 290 290
305 305 304 302 301 301 300 299 297 301 301 300 300 300 297 300 300 301 300 300 300 302 300 300 300 301 300 300 298 298 298 300 300 300 298 299 299 297 297 296 297 298 296 296 299 299 299 299 299 299 300 298 300 298 298 295 293 294 293 294 293 291 292 293 293 293 291 290 289 287 287 286 288 288
302 300 299 298 301 301 302 299 298 299 300 297 298 300 300 300 300 297 300 301 298 296 295 299 299 297 298 298 300 299 298 299 299 299 298 299 299 298 297 295 295 297 297 297 299 299 298 298 298 298 297 297 297 297 299 299 295 295 296 294 293 291 292 293 291 291 290 289 289 285 286 286 285 286
300 302 301 301 303 303 301 299 298 299 300 301 301 300 296 298 298 299 300 301 302 300 299 294 294 294 299 300 298 300 298 293 299 298 297 297 297 298 298 297 296 296 297 298 296 300 298 298 298 295 293 292 290 288 292 295 294 295 293 290 292 291 291 291 290 290 289 287 287 285 282 282 283 286
298 304 307 307 308 308 303 302 303 301 301 301 301 301 300 298 300 302 302 300 302 298 298 293 293 293 294 294 293 293 292 293 293 296 294 296 296 296 295 294 293 296 296 298 299 300 300 298 298 296 293 289 288 287 286 290 292 292 293 292 290 292 290 290 289 286 287 287 286 285 283 283 282 284
300 306 308 308 309 309 308 307 302 302 302 301 300 300 302 303 303 303 303 302 299 295 295 296 293 293 296 294 294 294 295 296 295 292 291 295 293 294 296 294 294 295 296 296 298 297 299 298 296 296 293 287 286 286 287 287 286 288 291 293 289 287 289 287 284 283 284 286 285 284 284 281 280 282
306 306 307 308 308 309 308 308 306 304 303 302 302 301 301 301 301 300 300 299 300 298 298 298 297 295 296 299 296 292 291 292 291 290 291 293 294 294 294 294 294 296 296 295 297 297 297 295 297 296 295 292 289 289 288 287 286 287 290 292 291 288 286 286 283 285 285 283 284 284 283 283 285 287
307 307 308 309 310 310 309 309 308 308 307 305 303 303 301 297 299 300 298 295 297 300 299 295 294 295 296 296 293 294 293 297 295 292 292 292 291 293 293 291 293 293 293 293 292 295 296 295 296 296 296 297 294 291 287 287 288 289 287 289 291 290 287 286 283 283 283 284 284 280 279 279 278 281
307 308 309 309 310 310 309 309 309 308 308 307 306 302 304 302 300 300 300 298 295 295 293 293 293 295 292 294 294 292 291 290 291 292 294 292 290 290 291 290 290 291 291 289 292 294 294 297 295 293 297 294 295 294 288 286 285 285 285 285 289 289 288 288 287 285 282 284 283 279 277 276 277 277
308 308 309 310 309 309 310 310 309 308 307 306 305 303 304 302 300 297 296 295 299 294 293 293 293 293 292 292 292 291 291 290 290 290 290 290 289 290 290 290 291 290 291 289 290 292 293 291 291 296 296 292 288 285 285 285 284 285 285 284 284 288 288 288 287 288 286 282 279 279 278 277 277 276
308 309 308 308 308 308 309 309 309 307 306 306 304 304 302 299 299 294 295 295 294 294 293 293 292 292 291 292 292 292 291 291 290 290 290 290 291 290 290 289 291 292 292 290 292 293 291 294 295 294 290 288 287 286 285 285 286 286 286 285 283 283 282 287 287 287 288 288 287 283 280 279 277 274
308 308 308 308 308 308 309 308 307 307 306 306 303 304 298 296 296 295 295 295 295 294 293 293 292 292 291 291 292 292 292 291 291 291 290 289 290 290 289 290 290 290 290 291 289 289 289 290 291 290 288 287 287 287 286 285 286 286 285 285 283 281 281 282 283 286 286 286 286 286 287 287 285 285
308 308 308 307 307 308 307 307 307 308 307 305 302 299 297 295 296 296 296 294 294 293 292 292 291 291 291 291 291 291 291 292 292 291 291 290 289 289 289 290 290 290 289 290 289 289 288 288 289 289 288 287 287 286 286 285 285 285 283 282 282 282 282 282 281 281 281 281 284 286 286 286 286 286
Wind_Speed
3 4 6 5 4 5 6 6 6 7 8 8 8 7 8 7 9 7 6 6 6 9 8 5 5 8 6 6 8 8 7 9 9 5 6 7 5 8 9 7 5 4 3 3 1 1 2 3 3 5 7 9 10 11 12 13 14 14 15 16 16 16 16 16 16 16 17 18 19 19 20 20 21 21
4 4 5 5 6 7 8 9 9 10 10 9 7 6 4 4 8 7 7 6 6 6 6 5 6 7 7 8 7 7 7 12 10 6 5 8 6 11 10 9 6 4 4 3 3 2 3 3 4 5 7 8 10 11 11 11 12 13 13 14 14 14 15 15 16 16 17 18 19 19 19 20 20 21
5 5 5 5 7 7 8 8 8 8 8 6 6 6 5 5 6 7 6 4 5 5 7 5 8 9 9 8 7 6 7 11 10 7 6 9 12 14 10 10 8 6 5 5 4 4 5 4 5 6 7 8 9 10 10 11 11 12 12 12 13 14 14 15 16 16 17 18 18 19 19 19 20 20
5 5 6 5 6 6 7 7 6 7 7 6 6 6 7 6 5 5 5 3 6 5 8 5 8 11 8 9 8 5 7 9 14 5 4 10 15 9 6 11 10 8 7 6 5 5 5 5 7 7 7 8 8 9 9 10 10 10 11 12 12 13 14 14 15 16 17 17 18 18 18 19 19 19
7 7 8 8 6 7 7 7 7 7 7 6 6 4 7 5 5 5 4 3 4 3 5 4 7 9 9 8 8 7 8 7 6 6 3 11 8 8 7 6 10 10 9 8 7 7 6 7 8 8 8 7 8 8 8 8 8 10 11 11 11 12 13 13 14 15 16 17 17 18 18 18 19 19
4 6 9 8 8 7 7 7 6 6 7 6 6 5 7 6 6 5 5 3 6 6 5 3 7 7 8 7 8 7 9 7 6 5 6 6 8 7 7 7 6 12 10 9 9 8 9 8 8 9 8 7 6 7 7 7 7 9 9 9 9 10 12 12 13 14 15 16 17 17 18 18 18 18
3 2 4 8 8 7 7 8 7 6 6 6 7 6 6 7 6 6 5 2 6 7 4 4 6 6 6 6 8 7 9 8 7 7 9 7 6 5 8 8 6 12 12 12 10 10 10 10 9 9 8 7 6 6 6 6 6 7 7 7 8 9 10 10 12 13 14 15 16 16 16 17 17 18
5 4 4 7 8 7 7 8 7 7 6 6 7 6 6 6 6 5 6 5 7 4 6 4 4 5 6 4 7 6 9 8 6 5 5 7 6 5 6 9 7 10 13 12 12 11 11 11 10 9 8 7 6 6 6 6 6 6 6 7 7 8 8 9 10 11 12 13 14 15 15 15 16 17
6 4 4 7 7 6 5 6 6 7 8 8 7 7 6 7 6 5 5 8 7 7 6 5 3 5 4 4 3 8 9 7 5 5 4 6 7 7 5 7 8 12 12 12 12 12 12 12 11 10 9 8 7 6 6 6 6 5 5 5 6 7 8 8 9 9 10 10 11 13 13 13 14 15
6 5 3 4 5 6 6 6 6 6 8 7 6 6 7 6 6 6 6 8 8 8 7 6 4 5 6 5 3 6 9 8 5 4 4 3 5 5 4 6 6 6 5 4 4 6 8 10 11 10 9 9 8 7 6 7 7 6 5 5 5 6 7 8 8 8 9 9 9 10 11 12 12 13
2 1 2 4 4 4 4 4 5 4 5 7 5 5 4 4 6 7 8 8 8 7 7 5 4 5 4 5 5 4 9 8 6 6 5 3 3 3 8 6 5 5 6 7 10 10 9 9 8 9 10 9 9 8 7 8 9 8 6 4 4 5 6 6 6 7 7 7 7 8 8 10 11 11
2 1 2 3 3 2 1 1 1 1 1 0 0 1 2 1 6 5 6 7 7 7 6 6 5 5 4 3 3 2 8 7 5 5 4 5 4 3 5 9 8 6 6 6 5 5 6 8 8 10 10 9 9 8 8 9 10 10 8 6 4 3 4 5 6 6 6 7 7 7 7 7 7 9
3 2 3 2 3 7 8 11 9 8 7 1 1 1 1 1 4 4 4 5 6 6 6 6 5 6 6 5 4 3 6 7 7 5 4 4 6 5 5 6 9 9 8 6 6 6 7 7 6 6 5 7 9 9 9 6 10 10 9 8 5 4 3 3 4 4 5 5 6 6 6 6 6 6
3 3 4 6 10 10 11 11 11 10 11 10 7 2 0 0 3 4 4 4 5 5 5 6 6 7 6 6 5 3 3 4 5 5 5 4 5 5 5 5 4 7 8 7 6 5 6 6 6 6 6 7 9 6 7 6 5 8 10 10 8 6 4 2 2 4 4 4 4 4 5 5 6 6
5 4 6 4 6 8 8 8 11 10 11 12 12 12 12 10 3 1 2 3 4 5 5 5 6 7 6 6 5 4 5 5 5 4 4 4 2 5 4 4 2 3 4 2 3 8 7 8 7 8 8 7 8 7 7 8 12 11 10 10 8 7 6 4 1 2 3 4 5 5 5 5 6 6
5 5 6 4 3 4 5 6 7 8 10 12 12 12 12 13 13 11 5 1 4 4 3 5 5 7 6 6 6 5 5 6 5 3 4 7 4 3 5 4 5 3 5 3 2 3 10 9 9 9 10 9 9 9 9 12 13 11 10 8 8 7 7 5 4 1 2 4 5 6 5 5 6 7
5 4 6 4 3 4 9 6 6 6 6 8 10 10 11 11 11 10 10 7 4 2 1 3 5 6 6 7 6 7 8 7 6 4 3 4 4 1 3 2 3 6 5 4 3 4 8 10 10 9 11 8 8 7 11 15 13 12 10 9 9 8 7 7 6 3 2 4 6 8 10 8 7 8
5 5 6 6 4 5 4 4 5 5 6 5 4 3 4 5 4 8 11 12 14 9 5 5 2 1 6 8 5 7 9 10 8 6 6 5 4 4 3 3 6 6 3 6 4 1 2 8 7 6 6 5 4 5 9 14 12 11 11 10 10 9 9 8 7 6 5 3 5 7 10 13 12 10
5 5 6 5 7 6 4 5 7 5 5 5 4 3 3 5 7 6 6 6 5 5 5 6 6 5 8 8 7 6 6 6 7 7 6 7 5 3 6 6 5 6 5 3 3 2 1 0 3 4 7 5 5 5 9 12 11 11 11 11 11 10 10 9 9 8 6 5 4 6 8 12 15 16
4 4 5 6 7 6 4 10 14 8 6 6 5 5 5 8 7 6 3 4 8 6 5 5 6 5 8 9 8 7 7 6 5 5 2 4 3 6 7 7 6 5 6 4 4 2 1 2 2 3 6 6 6 5 5 8 10 10 11 12 12 12 11 11 9 8 7 6 5 5 7 9 12 15
4 3 3 4 7 6 6 10 12 12 10 6 6 6 7 6 7 5 4 6 11 13 13 13 13 13 14 13 13 12 10 7 6 5 4 4 5 6 7 5 5 5 5 2 4 3 2 1 1 0 6 6 5 5 6 5 9 11 12 12 12 12 12 10 10 9 9 8 7 6 6 7 10 13
5 7 10 4 5 8 8 12 12 9 6 5 5 5 7 8 7 5 3 5 5 9 11 11 11 12 13 12 11 11 10 7 4 6 6 6 4 4 3 3 4 4 5 5 5 3 3 1 1 2 2 4 4 6 5 6 7 10 11 13 11 11 11 10 10 10 9 9 7 7 8 7 7 6
6 4 6 8 8 11 11 14 11 9 5 4 5 5 6 7 8 6 6 7 6 5 6 5 6 6 7 6 5 4 9 6 2 1 3 1 2 4 3 3 2 3 3 3 4 4 3 1 1 2 1 0 1 5 6 7 6 6 7 6 6 10 11 12 11 10 10 9 9 9 9 8 6 4
6 5 4 7 12 13 12 11 11 9 4 2 1 3 5 5 8 8 7 6 6 5 5 5 4 5 4 4 4 2 2 2 1 0 3 2 2 2 3 2 2 3 5 3 5 4 2 2 2 2 3 1 1 0 4 4 5 7 6 5 6 9 11 11 8 10 10 10 11 11 10 10 7 3
7 6 5 5 10 13 10 8 7 5 5 3 2 4 3 4 8 11 6 8 9 5 5 5 4 4 4 4 4 3 2 3 3 2 2 1 0 1 1 2 0 2 2 5 8 3 3 4 3 2 1 1 0 1 1 1 7 7 7 7 7 5 6 7 6 7 9 12 12 12 12 11 10 7
7 8 8 7 10 14 12 10 8 7 6 4 2 3 2 13 17 10 7 6 5 5 5 5 4 4 4 3 4 4 4 4 4 3 3 2 3 2 1 1 4 2 3 2 6 4 4 3 2 2 2 1 1 0 2 3 3 6 8 6 7 8 7 7 6 6 6 5 5 7 10 13 12 13
7 7 9 10 14 14 14 11 10 9 8 5 2 2 2 13 15 11 6 6 6 6 5 5 5 5 5 5 5 5 5 5 5 4 3 4 4 4 2 2 4 5 4 3 1 1 2 1 1 4 1 1 0 1 2 3 2 4 3 7 8 6 9 7 8 8 7 7 7 12 12 11 11 14
5 8 9 10 14 12 12 11 9 8 4 3 6 5 5 10 11 6 6 6 6 6 6 5 5 5 5 5 6 6 6 6 6 6 5 5 4 4 3 3 4 3 3 2 1 2 3 1 2 2 2 1 0 1 3 3 5 2 3 3 3 3 5 5 4 4 4 3 2 3 3 3 4 6
7 11 15 15 12 10 10 11 10 6 5 4 8 7 8 6 4 6 6 6 5 6 6 6 5 6 6 6 6 8 7 7 7 4 3 4 4 5 4 3 4 4 3 3 3 3 3 3 1 1 2 2 3 3 3 3 3 3 3 2 3 2 4 5 5 3 4 4 3 2 0 2 3 7
17 16 15 14 12 10 9 7 4 4 4 5 6 7 8 4 4 4 6 5 5 5 5 5 6 6 7 5 7 5 8 8 7 7 6 5 5 5 4 3 2 3 3 2 1 2 4 4 4 2 1 2 3 3 4 4 4 3 3 4 6 5 4 3 3 3 2 2 2 1 1 3 6 3
10 12 11 8 8 8 8 6 5 6 7 5 3 3 4 5 3 3 4 6 7 6 5 5 5 5 6 7 6 7 8 6 6 7 6 6 6 6 5 5 4 4 3 4 4 3 3 4 4 4 3 3 3 4 4 3 5 3 4 5 4 5 1 2 1 0 3 3 2 0 2 3 4 4
9 8 8 9 6 6 3 3 4 4 4 4 4 4 4 4 3 4 5 5 5 6 6 5 5 4 4 3 6 8 7 7 7 8 6 6 6 5 4 3 4 3 3 4 4 4 5 4 4 5 5 4 3 2 1 2 3 4 5 6 6 6 1 0 0 1 4 3 1 1 3 3 5 5
8 8 7 7 6 5 5 4 5 5 5 4 4 5 5 5 5 5 4 5 5 5 6 5 5 6 4 3 3 5 6 7 7 7 7 6 6 5 5 6 5 4 4 5 5 5 6 6 4 5 6 5 4 4 3 3 4 4 5 4 3 5 4 2 1 0 2 2 1 2 3 5 6 7
8 7 6 6 6 6 5 5 4 6 6 6 6 6 6 6 6 6 6 5 5 5 6 6 5 4 3 4 4 4 5 6 5 7 9 6 6 5 5 6 5 5 5 6 6 6 6 4 3 1 0 0 1 3 4 5 6 6 5 3 3 5 3 0 2 2 1 0 1 4 4 5 4 4
7 5 5 6 6 7 6 6 5 6 6 8 6 6 6 6 6 6 6 5 4 5 4 6 5 4 3 4 4 6 7 6 6 6 6 6 6 6 6 6 6 6 6 6 6 7 6 6 5 4 2 2 2 4 7 6 6 6 3 3 3 4 2 1 1 2 2 2 1 3 4 4 5 5
6 6 6 5 6 7 7 7 7 6 5 7 7 6 5 6 6 6 5 4 5 5 5 4 4 4 4 4 4 3 2 4 5 5 6 5 6 6 6 6 5 5 5 6 5 7 7 7 7 6 5 6 5 3 3 2 4 5 4 3 4 3 1 1 2 1 2 2 3 3 4 5 5 4
5 6 7 6 4 4 7 7 6 6 5 6 7 7 7 7 7 6 5 4 5 5 6 5 5 4 4 2 3 3 2 2 2 3 4 5 6 6 6 5 7 7 6 5 3 8 7 7 6 7 7 5 3 4 5 1 3 4 5 7 4 3 1 0 1 2 3 2 3 3 3 3 4 4
5 5 5 5 5 5 3 4 7 7 7 6 6 6 6 6 6 5 4 5 5 4 6 7 6 6 5 4 3 3 2 3 3 3 4 5 4 5 6 7 6 5 6 5 5 5 9 6 7 5 6 5 4 4 5 2 1 4 8 7 6 6 1 1 2 3 4 2 1 2 3 4 5 5
6 7 6 6 5 4 5 5 3 6 6 6 6 6 6 6 7 7 7 6 5 5 4 4 5 5 5 5 4 5 4 3 4 4 5 6 6 5 5 7 7 7 6 7 7 6 7 8 8 7 7 7 6 6 6 4 4 3 6 12 7 4 3 3 4 4 2 1 2 2 2 2 5 9
7 6 6 5 4 4 5 5 5 4 5 6 6 6 5 4 6 7 7 7 6 5 6 4 4 5 6 5 5 4 5 6 6 5 5 6 6 6 6 5 6 7 7 8 7 5 6 6 6 6 7 7 6 5 6 4 1 1 2 5 7 5 5 2 3 3 2 1 1 2 4 5 4 4
6 6 5 4 4 4 5 6 6 5 5 6 6 6 6 5 6 6 7 7 7 6 5 5 5 5 5 5 6 6 6 6 6 6 7 5 6 6 8 8 6 5 6 6 5 4 4 4 6 10 7 6 5 4 3 1 3 3 4 6 5 5 4 3 3 2 2 0 0 2 4 4 4 4
6 5 4 5 5 5 4 4 6 6 6 6 6 6 6 4 4 6 5 8 9 6 6 6 5 6 6 6 6 5 6 6 6 7 6 6 6 6 9 8 8 7 5 5 4 3 4 3 4 7 6 6 5 4 4 5 4 4 2 2 3 5 6 4 4 4 3 3 1 2 2 3 1 3
7 5 5 5 4 5 5 3 4 6 6 6 6 6 7 6 4 4 5 5 5 5 5 6 6 6 6 6 6 6 6 6 6 6 6 7 7 7 7 7 7 6 5 5 3 6 5 4 4 5 5 5 3 5 5 5 4 3 2 2 2 2 2 6 7 8 6 5 5 6 5 4 1 3
7 6 6 5 5 6 4 5 4 3 6 6 7 7 5 5 5 6 7 7 6 6 7 6 6 6 6 6 6 6 6 6 6 6 6 6 7 7 6 6 6 5 5 6 3 5 4 4 4 5 6 4 4 4 6 4 4 2 2 1 2 2 3 4 4 5 4 6 9 10 12 11 11 12
6 6 6 5 6 6 6 4 3 3 5 6 6 5 5 6 6 6 6 7 7 7 7 6 6 6 6 6 7 7 6 7 6 6 7 6 6 6 5 5 5 5 6 6 6 5 5 5 4 4 4 5 3 4 4 2 2 1 2 3 5 5 5 3 4 5 6 7 10 14 14 16 16 17
Wind_Direction
138 131 160 186 162 153 151 132 130 137 142 162 179 172 168 170 145 161 179 196 177 189 189 170 150 140 138 115 107 122 139 153 159 161 148 147 145 141 134 133 136 117 125 105 82 84 76 83 81 62 53 47 43 39 35 32 28 26 24 20 18 14 13 14 20 22 23 23 22 18 18 20 19 19
105 114 119 118 121 139 150 162 161 156 160 170 177 176 196 167 153 160 172 190 182 171 171 169 148 143 143 123 132 136 145 160 166 176 166 153 150 147 141 143 146 148 133 126 99 98 89 88 89 76 64 55 49 42 37 36 33 30 26 21 18 16 15 15 21 23 23 23 22 20 18 20 20 20
136 133 127 129 136 148 160 162 159 154 156 177 185 181 197 178 162 163 172 152 211 158 166 177 150 148 152 143 146 152 143 169 174 184 185 160 152 148 152 151 159 166 159 144 144 130 116 111 100 90 75 66 56 47 42 38 38 34 29 23 20 18 17 17 20 24 23 23 22 20 19 21 21 21
151 147 127 135 140 146 149 160 153 168 177 175 190 190 196 191 187 179 186 189 184 177 164 166 144 151 153 142 153 160 148 173 180 197 220 151 150 143 153 159 165 172 166 155 135 118 113 117 112 99 92 78 67 58 49 42 42 41 35 28 23 20 19 19 20 24 24 23 23 21 20 22 22 21
154 151 138 146 158 158 153 158 165 180 183 184 200 207 194 187 199 204 212 209 123 123 152 151 145 156 143 147 161 160 145 166 189 198 118 150 148 149 155 166 173 172 170 156 145 133 126 126 121 109 99 84 75 69 58 49 44 45 40 33 27 23 21 20 20 24 25 24 24 23 20 22 23 22
81 144 148 155 157 175 160 160 176 173 175 182 195 204 184 202 208 210 208 192 141 146 159 138 133 148 151 150 170 163 148 166 184 169 146 157 164 159 156 162 178 181 174 166 156 143 130 119 116 113 107 100 93 83 74 60 50 45 44 36 29 27 26 23 21 24 27 25 26 25 21 21 25 25
147 168 150 146 154 173 173 176 188 190 189 188 194 199 187 199 211 211 213 172 141 145 154 139 141 149 156 164 173 165 147 162 174 177 161 173 176 188 165 167 171 184 177 167 159 150 144 139 135 130 127 124 118 105 90 76 59 52 45 42 33 32 30 27 24 25 26 25 26 27 24 20 26 28
153 168 160 146 154 167 174 173 190 184 191 198 191 197 195 210 205 205 212 157 141 141 143 151 154 151 152 190 171 159 144 155 173 200 177 167 175 185 199 160 168 181 176 168 164 162 154 148 145 144 142 137 129 120 107 93 79 60 53 43 37 34 34 30 29 29 27 25 24 26 25 19 25 31
146 168 195 154 147 158 177 172 188 176 188 203 199 197 199 199 207 207 146 124 131 134 143 159 168 146 152 191 187 145 141 154 165 200 205 165 177 188 205 132 163 164 173 169 174 171 161 153 154 153 152 149 144 133 122 113 98 80 61 50 42 36 33 31 30 30 29 28 26 25 24 19 22 31
148 164 163 128 144 164 183 180 190 198 189 200 201 201 205 199 187 164 128 133 131 143 146 163 159 146 155 184 229 155 145 151 159 192 231 195 167 162 103 122 134 147 166 163 181 174 159 160 158 157 157 157 155 152 151 134 116 100 82 61 48 37 30 31 27 26 27 27 26 26 23 18 17 24
97 101 119 135 151 174 195 197 191 206 205 198 197 199 198 200 156 148 139 145 142 150 147 158 158 142 161 162 203 176 143 145 158 165 207 199 149 138 127 135 147 163 175 189 184 177 176 163 160 167 166 167 171 163 164 153 133 120 105 88 67 47 36 32 29 24 22 21 20 19 18 17 14 14
105 132 112 113 144 167 223 270 212 206 195 169 260 298 235 126 138 143 139 143 147 153 145 155 159 149 150 178 205 152 133 140 159 167 170 166 165 191 156 149 164 178 175 177 189 190 158 152 160 169 174 178 178 176 178 168 139 139 137 125 107 75 53 36 32 29 26 21 19 11 6 6 4 7
140 148 114 115 89 78 80 72 68 61 51 51 212 216 87 109 140 150 143 149 139 145 141 157 150 141 148 173 188 184 153 158 166 171 166 173 174 179 164 170 171 173 179 183 177 181 177 159 169 175 187 193 190 189 187 187 157 153 146 142 139 115 85 48 30 25 20 17 12 4 0 353 344 342
159 154 95 95 100 93 86 79 71 65 66 63 63 356 35 266 111 142 155 151 154 155 165 164 154 145 161 178 186 186 144 136 131 156 188 182 185 171 167 179 199 170 169 166 180 192 176 170 169 183 208 200 190 196 189 202 180 172 163 150 148 143 118 84 34 11 5 1 352 339 339 333 335 329
176 162 129 128 121 118 92 82 80 72 75 73 64 64 71 59 61 148 152 178 168 162 175 155 148 154 164 178 170 163 140 140 146 175 177 189 164 169 159 183 185 142 147 182 143 178 193 173 181 189 213 195 195 197 196 180 187 179 170 155 152 149 137 132 78 344 335 330 324 318 314 320 321 322
182 166 134 145 149 131 137 126 104 91 85 88 85 83 81 77 68 70 69 166 156 163 165 156 164 156 165 167 148 144 129 153 154 177 172 172 209 165 173 166 164 209 183 164 212 192 190 187 189 187 209 197 191 192 168 182 187 176 173 157 157 161 158 163 178 208 307 318 306 296 306 316 315 312
178 149 134 147 180 159 147 140 132 123 105 98 109 102 89 81 83 74 61 54 72 44 103 152 169 158 152 146 169 153 152 151 157 206 161 158 166 155 137 177 155 191 154 156 218 215 189 191 204 181 205 189 189 159 160 189 181 176 171 161 168 178 188 179 174 197 243 288 307 320 320 318 314 310
173 151 149 164 144 132 155 158 140 134 129 134 138 153 117 101 90 70 54 43 38 45 73 72 66 163 126 156 139 135 143 156 175 160 153 155 188 153 160 160 147 152 164 164 185 207 238 189 205 162 170 146 116 134 174 192 174 180 175 174 180 188 192 194 179 187 207 255 294 313 316 319 324 319
164 154 160 158 142 157 171 159 143 140 143 142 139 127 118 81 65 61 53 53 55 71 73 86 90 77 99 117 122 115 121 135 154 163 163 159 181 163 112 131 145 153 201 176 157 189 248 61 204 132 144 139 143 159 195 191 179 184 183 182 190 199 202 199 198 189 199 226 264 289 308 317 323 329
154 160 163 154 145 162 169 140 143 146 145 144 145 146 113 91 82 63 1 55 94 92 99 103 102 96 106 116 116 120 120 115 112 106 108 148 176 163 164 167 167 162 209 183 145 146 203 260 207 161 157 144 154 174 188 202 193 195 199 193 196 203 210 201 206 198 202 212 231 264 289 308 316 325
151 167 170 149 143 148 123 131 130 153 154 151 156 150 130 117 109 99 84 66 88 97 98 101 109 114 109 108 107 100 102 120 133 132 125 173 192 174 188 181 159 188 183 197 142 133 153 261 166 350 127 170 166 182 200 187 204 209 213 206 205 206 219 207 212 209 203 211 224 239 270 290 307 315
94 74 64 47 138 132 139 138 141 152 164 155 156 152 137 132 125 134 136 101 76 88 99 105 108 108 110 111 114 116 107 98 129 166 184 191 186 208 181 189 177 176 168 206 151 108 205 210 157 133 181 162 172 192 178 180 193 212 223 226 215 212 226 219 219 219 212 216 215 227 246 267 289 307
113 88 68 67 111 138 155 150 149 163 172 165 162 164 158 146 147 157 151 129 126 122 109 103 98 94 108 109 109 113 109 104 82 154 140 100 191 210 220 204 135 128 231 215 141 130 201 122 222 127 110 298 232 163 178 179 187 198 215 222 222 229 234 234 229 229 227 222 226 226 238 248 275 296
132 123 97 88 116 133 142 153 150 177 161 34 21 165 164 165 146 155 150 153 146 151 145 146 139 138 137 106 106 109 128 128 169 60 79 87 59 337 238 215 210 165 187 196 146 150 195 156 170 145 148 138 290 171 151 190 193 203 205 193 218 229 226 240 248 245 235 232 231 228 231 235 238 264
142 140 128 123 129 131 138 138 161 147 89 95 18 340 202 168 142 146 150 162 163 153 142 138 140 146 134 130 133 152 176 196 208 170 124 131 308 308 34 23 350 169 165 165 182 146 179 173 180 127 110 117 206 315 288 173 191 215 199 192 220 224 195 216 228 241 236 234 234 233 235 230 226 232
152 153 147 151 155 148 150 154 160 143 124 94 61 7 320 132 136 141 141 153 149 130 132 141 146 148 152 149 169 163 186 203 226 191 148 170 231 258 280 146 123 117 188 213 152 178 133 144 160 120 144 126 278 125 334 304 263 204 196 189 207 217 183 207 202 229 231 219 226 232 237 235 219 223
159 148 155 159 161 155 155 159 158 149 129 123 102 101 138 135 128 126 142 151 145 145 152 160 163 168 170 175 184 179 186 197 197 188 168 190 207 242 256 127 146 156 172 162 135 124 110 130 129 132 174 133 51 342 287 271 296 326 334 158 203 192 191 190 196 191 180 183 210 226 236 250 226 216
116 126 148 151 154 149 146 143 136 127 109 125 141 125 167 142 133 136 142 151 156 154 162 171 179 181 190 183 186 191 191 177 173 182 192 186 195 213 221 161 146 143 153 157 153 124 123 134 162 152 137 134 145 220 273 284 279 255 277 289 321 316 164 168 179 172 188 190 192 179 170 222 219 210
88 100 108 119 122 126 124 121 113 113 104 125 153 151 175 177 154 140 142 157 161 169 182 185 185 191 199 204 196 190 180 156 159 177 189 189 198 205 204 157 148 158 158 175 173 159 149 151 186 168 150 158 171 228 222 250 272 281 255 309 309 277 193 197 163 173 190 178 181 145 183 287 271 184
105 107 112 115 120 122 130 134 143 151 154 155 164 168 170 202 199 170 150 169 174 194 192 199 201 188 191 198 219 186 155 157 168 171 182 185 205 185 156 127 142 170 171 160 183 180 164 169 177 174 173 180 189 233 242 260 277 275 307 286 266 281 274 133 169 181 179 156 138 120 286 267 269 243
104 118 126 140 146 149 154 120 111 116 120 118 150 185 192 208 215 208 186 174 176 186 199 210 221 209 192 197 183 135 155 157 167 170 181 178 182 171 162 161 209 231 204 173 193 216 213 181 176 160 172 217 235 216 240 245 266 283 283 277 288 269 240 182 164 170 124 113 110 327 275 289 285 281
129 129 127 127 126 129 126 117 132 133 155 162 167 188 193 212 224 228 227 232 188 184 188 206 216 221 211 197 158 158 164 177 173 176 174 165 164 168 161 181 218 204 209 197 201 214 215 205 187 178 174 185 212 262 312 286 268 272 275 271 271 280 266 100 89 113 119 121 64 296 284 277 277 279
133 139 148 146 144 150 155 174 175 159 169 179 182 191 187 198 208 214 214 222 214 181 172 210 224 213 209 203 169 176 177 174 181 165 154 154 159 176 188 211 207 194 211 203 196 211 211 220 187 173 177 185 195 201 205 257 262 245 254 272 307 311 314 344 53 119 97 59 341 300 295 279 271 264
144 153 150 152 163 162 171 175 187 170 177 177 184 192 199 194 197 204 212 212 209 177 180 195 211 223 193 202 216 202 191 200 174 157 154 165 167 183 202 215 218 205 206 216 190 201 204 189 153 123 102 291 257 217 207 220 246 254 256 279 300 285 271 60 19 81 98 150 270 295 283 289 284 291
148 153 153 167 172 170 174 171 186 189 177 178 178 183 187 201 203 202 206 200 189 188 191 188 191 204 211 229 225 207 195 173 149 154 168 158 176 194 206 211 213 209 212 223 189 192 166 172 156 160 205 229 262 283 229 208 221 250 271 295 273 275 286 354 41 21 36 335 316 278 284 293 298 286
156 161 167 187 185 176 176 173 180 185 190 172 178 183 176 190 206 199 211 194 181 185 180 185 196 199 207 220 182 170 118 131 156 165 173 178 182 194 205 212 224 239 227 225 203 177 168 173 169 177 183 200 201 282 280 15 144 222 235 255 254 266 304 13 47 31 352 308 296 300 292 278 276 300
164 170 177 191 212 201 171 175 176 178 186 182 176 183 175 176 191 196 195 169 179 185 191 184 202 209 197 174 153 169 152 139 171 183 189 200 194 189 196 214 220 231 240 252 210 161 172 175 190 190 180 165 176 231 259 280 287 228 187 227 251 262 250 107 347 307 271 244 276 267 266 298 297 302
175 187 190 204 200 202 203 194 174 177 174 185 179 179 169 169 184 194 180 174 194 192 186 189 195 196 191 171 164 180 188 184 189 199 215 215 205 198 197 209 227 228 234 244 241 178 181 177 177 166 147 155 188 232 264 284 327 280 206 201 222 240 216 252 272 259 270 268 231 285 343 331 299 299
188 194 200 207 198 188 193 213 186 180 182 177 174 177 176 179 175 176 173 179 189 189 180 177 173 183 183 186 188 182 199 212 219 225 223 225 216 211 204 207 217 226 225 232 230 221 174 164 161 169 163 160 184 213 197 188 221 242 211 203 200 211 251 213 232 244 242 294 304 333 334 297 309 300
192 199 203 213 217 197 187 176 200 209 186 175 169 167 182 187 174 169 168 173 179 185 185 192 178 176 193 192 190 200 205 210 215 218 220 217 216 216 227 221 210 214 216 220 225 216 175 181 165 166 175 184 183 171 158 166 207 244 213 229 230 199 209 182 207 197 263 241 49 14 309 321 305 303
195 192 203 200 210 221 216 199 189 192 187 155 161 166 187 184 177 170 168 167 166 169 181 192 195 192 198 198 194 185 204 214 213 218 224 218 208 208 222 232 240 217 199 222 222 228 205 188 191 159 132 128 124 85 75 13 277 269 225 245 218 219 206 200 212 169 193 162 177 242 270 279 278 293
197 197 194 195 211 235 239 200 180 179 176 165 165 169 179 176 170 171 164 159 166 169 175 190 199 205 206 198 195 193 201 212 210 214 217 223 228 224 224 220 226 231 219 215 214 180 166 152 123 108 118 117 104 118 202 217 237 265 215 227 257 232 218 242 271 230 190 163 170 277 288 318 335 306
186 197 197 203 210 221 235 251 197 175 168 160 170 167 170 175 169 133 145 159 159 169 185 196 206 201 198 193 194 194 200 214 213 211 210 217 223 226 220 213 210 212 210 226 209 139 159 154 137 120 121 125 153 150 199 217 221 227 222 192 207 238 243 236 239 247 242 238 204 204 196 203 213 277
181 189 197 199 202 210 211 225 239 186 164 161 163 164 167 165 172 159 159 166 171 180 187 195 199 204 203 196 191 195 202 208 208 211 218 220 215 213 213 211 209 214 215 220 170 146 158 147 147 132 133 170 185 185 215 222 240 218 201 195 145 154 244 253 254 251 265 270 258 251 251 240 226 229
173 183 195 193 194 190 187 202 234 223 176 170 166 174 171 167 176 180 178 175 177 176 178 189 198 203 200 193 179 195 208 208 208 211 212 223 233 233 225 221 222 219 208 198 139 155 151 147 149 142 152 179 171 180 201 186 206 237 274 263 263 244 232 213 203 217 237 256 248 239 239 245 248 249